This is the latest recevied weather packets stored in our database for station/object MM1PTT-13. If no packets are shown the sender has not sent any weather packets the latest 10 day(s).
| Time | Temp. | Humidity | Pressure | Rain* | Wind** | Luminosity | Snow |
|---|---|---|---|---|---|---|---|
| 1777582243 | 12.22° C | 68% | 991.9 hPa | 0 mm | - | 0 W/m² | - |
| 1777580443 | 13.33° C | 66% | 991.5 hPa | 0 mm | - | 1 W/m² | - |
| 1777580143 | 13.33° C | 66% | 991.5 hPa | 0 mm | - | 1 W/m² | - |
| 1777578643 | 13.89° C | 64% | 991.2 hPa | 0 mm | - | 6 W/m² | - |
| 1777578043 | 14.44° C | 63% | 991.2 hPa | 0 mm | - | 10 W/m² | - |
| 1777577742 | 14.44° C | 63% | 991.5 hPa | 0 mm | - | 13 W/m² | - |
| 1777577443 | 14.44° C | 62% | 991.2 hPa | 0 mm | - | 16 W/m² | - |
| 1777577143 | 15° C | 61% | 991.2 hPa | 0 mm | - | 14 W/m² | - |
| 1777576842 | 15° C | 61% | 991.2 hPa | 0 mm | - | 16 W/m² | - |
| 1777575643 | 15.56° C | 59% | 991.2 hPa | 0 mm | - | 28 W/m² | - |
| 1777575043 | 16.11° C | 58% | 990.9 hPa | 0 mm | - | 32 W/m² | - |
| 1777574442 | 16.67° C | 57% | 991.2 hPa | 0 mm | - | 36 W/m² | - |
| 1777573842 | 16.67° C | 55% | 990.9 hPa | 0 mm | - | 40 W/m² | - |
| 1777573543 | 17.22° C | 54% | 990.9 hPa | 0 mm | - | 41 W/m² | - |
| 1777573242 | 17.22° C | 53% | 990.9 hPa | 0 mm | - | 42 W/m² | - |
| 1777572944 | 18.33° C | 51% | 990.9 hPa | 0 mm | - | 60 W/m² | - |
| 1777572643 | 18.33° C | 51% | 991.2 hPa | 0 mm | - | 61 W/m² | - |
| 1777572343 | 18.33° C | 51% | 991.2 hPa | 0 mm | - | 64 W/m² | - |
| 1777572044 | 18.33° C | 51% | 991.2 hPa | 0 mm | - | 68 W/m² | - |
| 1777571743 | 18.33° C | 50% | 991.2 hPa | 0 mm | - | 73 W/m² | - |
| 1777569643 | 18.89° C | 49% | 991.2 hPa | 0 mm | - | 102 W/m² | - |
| 1777569346 | 19.44° C | 48% | 991.2 hPa | 0 mm | - | 107 W/m² | - |
| 1777568743 | 19.44° C | 48% | 991.2 hPa | 0 mm | - | 115 W/m² | - |
| 1777568442 | 18.89° C | 49% | 991.5 hPa | 0 mm | - | 124 W/m² | - |
| 1777567242 | 19.44° C | 50% | 991.5 hPa | 0 mm | - | 145 W/m² | - |
* Rain latest hour (hover to see other rain measurements)
** Current wind speed in m/s (hover to see current wind gust speed)